• In Uzbekistan
  • List of Countries
  • For 7 days
  • Water Temperature
  • Satellite Maps
  • Weather Map
  • Weather Widgets
  • user-avatar
    Login

    Hourly Weather Bubanza

    Today, 18 April, Thursday

    Time Temperature Precipitation Wind Pressure Humidity
    00:00 +21°C° 0 mm 1 mps 674 mmHg 82%
    01:00 +21°C° 0 mm 1 mps 674 mmHg 82%
    02:00 +20°C° 0 mm 1 mps 673 mmHg 82%
    03:00 +20°C° 0 mm 1 mps 673 mmHg 82%
    04:00 +20°C° 0 mm 1 mps 673 mmHg 81%
    05:00 +18°C° 0 mm 0 mps 673 mmHg 81%
    06:00 +22°C° 0 mm 1 mps 674 mmHg 74%
    07:00 +24°C° 0 mm 1 mps 675 mmHg 68%
    08:00 +26°C° 0 mm 1 mps 676 mmHg 61%
    09:00 +28°C° 0.1 mm 1 mps 676 mmHg 58%
    10:00 +29°C° 0.1 mm 1 mps 676 mmHg 54%
    11:00 +31°C° 0.1 mm 2 mps 676 mmHg 51%
    12:00 +31°C° 0.5 mm 2 mps 675 mmHg 51%
    13:00 +31°C° 0.5 mm 2 mps 674 mmHg 52%
    14:00 +32°C° 0.5 mm 2 mps 674 mmHg 52%
    15:00 +31°C° 0.6 mm 2 mps 674 mmHg 55%
    16:00 +30°C° 0.6 mm 2 mps 673 mmHg 57%
    17:00 +29°C° 0.6 mm 1 mps 673 mmHg 60%
    18:00 +27°C° 0.7 mm 1 mps 673 mmHg 67%
    19:00 +25°C° 0.7 mm 1 mps 673 mmHg 73%
    20:00 +22°C° 0.7 mm 1 mps 673 mmHg 80%
    21:00 +22°C° 0 mm 1 mps 673 mmHg 81%
    22:00 +22°C° 0 mm 1 mps 674 mmHg 82%
    23:00 +21°C° 0 mm 1 mps 674 mmHg 82%

    Tomorrow, 19 April, Friday

    Time Temperature Precipitation Wind Pressure Humidity
    00:00 +21°C° 0 mm 1 mps 673 mmHg 83%
    01:00 +20°C° 0 mm 1 mps 673 mmHg 83%
    02:00 +20°C° 0 mm 1 mps 673 mmHg 83%
    03:00 +20°C° 0 mm 1 mps 672 mmHg 83%
    04:00 +20°C° 0 mm 1 mps 672 mmHg 83%
    05:00 +19°C° 0 mm 1 mps 672 mmHg 83%
    06:00 +21°C° 0 mm 1 mps 673 mmHg 76%
    07:00 +23°C° 0 mm 1 mps 674 mmHg 70%
    08:00 +25°C° 0 mm 1 mps 675 mmHg 64%
    09:00 +27°C° 0.1 mm 1 mps 675 mmHg 60%
    10:00 +29°C° 0.1 mm 1 mps 675 mmHg 57%
    11:00 +30°C° 0.1 mm 2 mps 676 mmHg 53%
    12:00 +31°C° 0.4 mm 2 mps 675 mmHg 53%
    13:00 +31°C° 0.4 mm 2 mps 674 mmHg 54%
    14:00 +31°C° 0.4 mm 1 mps 674 mmHg 54%
    15:00 +31°C° 0.3 mm 1 mps 673 mmHg 55%
    16:00 +30°C° 0.3 mm 1 mps 673 mmHg 56%
    17:00 +30°C° 0.3 mm 1 mps 673 mmHg 57%
    18:00 +27°C° 0 mm 1 mps 673 mmHg 63%
    19:00 +25°C° 0 mm 1 mps 673 mmHg 70%
    20:00 +20°C° 0 mm 0 mps 673 mmHg 77%
    21:00 +20°C° 0 mm 0 mps 673 mmHg 78%
    22:00 +22°C° 0 mm 1 mps 673 mmHg 79%
    23:00 +21°C° 0 mm 1 mps 674 mmHg 81%

    Day after tomorrow, 20 April, Saturday

    Time Temperature Precipitation Wind Pressure Humidity
    00:00 +21°C° 0 mm 1 mps 673 mmHg 81%
    01:00 +20°C° 0 mm 1 mps 673 mmHg 82%
    02:00 +20°C° 0 mm 1 mps 672 mmHg 82%
    03:00 +20°C° 0 mm 1 mps 672 mmHg 82%
    04:00 +20°C° 0 mm 1 mps 672 mmHg 81%
    05:00 +20°C° 0 mm 1 mps 672 mmHg 81%
    06:00 +22°C° 0 mm 1 mps 673 mmHg 74%
    07:00 +24°C° 0 mm 1 mps 674 mmHg 66%
    08:00 +26°C° 0 mm 1 mps 675 mmHg 59%
    09:00 +28°C° 0 mm 1 mps 675 mmHg 55%
    10:00 +30°C° 0 mm 1 mps 675 mmHg 51%
    11:00 +31°C° 0 mm 1 mps 675 mmHg 46%
    12:00 +32°C° 0.2 mm 1 mps 674 mmHg 46%
    13:00 +32°C° 0.2 mm 1 mps 673 mmHg 46%
    14:00 +33°C° 0.2 mm 1 mps 673 mmHg 46%
    15:00 +32°C° 0.7 mm 1 mps 672 mmHg 51%
    16:00 +31°C° 0.7 mm 1 mps 672 mmHg 55%
    17:00 +30°C° 0.7 mm 1 mps 672 mmHg 59%
    18:00 +27°C° 1.4 mm 1 mps 672 mmHg 66%
    19:00 +25°C° 1.4 mm 1 mps 673 mmHg 74%
    20:00 +23°C° 1.4 mm 1 mps 673 mmHg 81%
    21:00 +22°C° 0.4 mm 1 mps 673 mmHg 83%
    22:00 +20°C° 0.4 mm 0 mps 673 mmHg 84%
    23:00 +20°C° 0.4 mm 0 mps 673 mmHg 85%

    21 April, Sunday

    Time Temperature Precipitation Wind Pressure Humidity
    00:00 +19°C° 0 mm 0 mps 673 mmHg 85%
    01:00 +19°C° 0 mm 0 mps 672 mmHg 85%
    02:00 +19°C° 0 mm 0 mps 672 mmHg 86%
    03:00 +18°C° 0 mm 0 mps 672 mmHg 85%
    04:00 +20°C° 0 mm 1 mps 672 mmHg 85%
    05:00 +20°C° 0 mm 1 mps 672 mmHg 84%
    06:00 +20°C° 0 mm 0 mps 673 mmHg 77%
    07:00 +22°C° 0 mm 0 mps 674 mmHg 71%
    08:00 +24°C° 0 mm 0 mps 675 mmHg 64%
    09:00 +26°C° 0 mm 0 mps 675 mmHg 56%
    10:00 +29°C° 0 mm 0 mps 675 mmHg 48%
    11:00 +33°C° 0 mm 1 mps 675 mmHg 40%
    12:00 +33°C° 0.3 mm 1 mps 674 mmHg 42%
    13:00 +33°C° 0.3 mm 1 mps 673 mmHg 44%
    14:00 +33°C° 0.3 mm 1 mps 672 mmHg 46%
    15:00 +32°C° 0.5 mm 1 mps 672 mmHg 49%
    16:00 +30°C° 0.5 mm 1 mps 672 mmHg 53%
    17:00 +29°C° 0.5 mm 2 mps 672 mmHg 56%
    18:00 +27°C° 0.4 mm 1 mps 672 mmHg 63%
    19:00 +25°C° 0.4 mm 1 mps 672 mmHg 70%
    20:00 +21°C° 0.4 mm 0 mps 672 mmHg 77%
    21:00 +20°C° 0.4 mm 0 mps 672 mmHg 78%
    22:00 +20°C° 0.4 mm 0 mps 672 mmHg 80%
    23:00 +20°C° 0.4 mm 0 mps 672 mmHg 82%

    22 April, Monday

    Time Temperature Precipitation Wind Pressure Humidity
    00:00 +19°C° 0 mm 0 mps 672 mmHg 82%
    01:00 +19°C° 0 mm 0 mps 671 mmHg 82%
    02:00 +19°C° 0 mm 0 mps 671 mmHg 82%
    03:00 +19°C° 0 mm 0 mps 671 mmHg 81%
    04:00 +18°C° 0 mm 0 mps 671 mmHg 81%
    05:00 +18°C° 0 mm 0 mps 672 mmHg 81%
    06:00 +20°C° 0 mm 0 mps 673 mmHg 74%
    07:00 +23°C° 0 mm 0 mps 674 mmHg 68%
    08:00 +25°C° 0 mm 0 mps 675 mmHg 62%
    09:00 +27°C° 0.1 mm 0 mps 675 mmHg 55%
    10:00 +29°C° 0.1 mm 0 mps 675 mmHg 48%
    11:00 +34°C° 0.1 mm 1 mps 675 mmHg 41%
    12:00 +34°C° 0.4 mm 1 mps 674 mmHg 41%
    13:00 +34°C° 0.4 mm 1 mps 673 mmHg 42%
    14:00 +34°C° 0.4 mm 1 mps 672 mmHg 42%
    15:00 +32°C° 0.4 mm 1 mps 672 mmHg 47%
    16:00 +30°C° 0.4 mm 1 mps 672 mmHg 51%
    17:00 +29°C° 0.4 mm 2 mps 672 mmHg 56%
    18:00 +27°C° 1.6 mm 1 mps 672 mmHg 63%
    19:00 +23°C° 1.6 mm 0 mps 672 mmHg 70%
    20:00 +21°C° 1.6 mm 0 mps 673 mmHg 77%
    21:00 +21°C° 1.1 mm 0 mps 673 mmHg 79%
    22:00 +20°C° 1.1 mm 0 mps 673 mmHg 80%
    23:00 +20°C° 1.1 mm 0 mps 672 mmHg 82%

    23 April, Tuesday

    Time Temperature Precipitation Wind Pressure Humidity
    00:00 +20°C° 0.1 mm 0 mps 672 mmHg 82%
    01:00 +20°C° 0.1 mm 0 mps 672 mmHg 82%
    02:00 +19°C° 0.1 mm 0 mps 672 mmHg 82%
    03:00 +19°C° 0 mm 0 mps 672 mmHg 82%
    04:00 +19°C° 0 mm 0 mps 672 mmHg 82%
    05:00 +21°C° 0 mm 1 mps 672 mmHg 82%
    06:00 +21°C° 0 mm 0 mps 673 mmHg 76%
    07:00 +23°C° 0 mm 0 mps 674 mmHg 69%
    08:00 +24°C° 0 mm 0 mps 675 mmHg 63%
    09:00 +27°C° 0 mm 0 mps 675 mmHg 55%
    10:00 +31°C° 0 mm 1 mps 675 mmHg 48%
    11:00 +33°C° 0 mm 1 mps 675 mmHg 41%
    12:00 +33°C° 0.4 mm 1 mps 674 mmHg 43%
    13:00 +34°C° 0.4 mm 2 mps 673 mmHg 46%
    14:00 +32°C° 0.4 mm 2 mps 673 mmHg 49%
    15:00 +31°C° 1.3 mm 2 mps 672 mmHg 54%
    16:00 +29°C° 1.3 mm 2 mps 672 mmHg 59%
    17:00 +28°C° 1.3 mm 1 mps 672 mmHg 65%
    18:00 +27°C° 1.9 mm 1 mps 672 mmHg 69%
    19:00 +25°C° 1.9 mm 1 mps 673 mmHg 74%
    20:00 +22°C° 1.9 mm 0 mps 673 mmHg 79%
    21:00 +22°C° 1.4 mm 0 mps 673 mmHg 81%
    22:00 +21°C° 1.4 mm 0 mps 674 mmHg 83%
    23:00 +21°C° 1.4 mm 0 mps 674 mmHg 85%
    Show more